User: anonymous   Login
Location: Oshawa
(43.9000°N, 78.8670°W)
Time: 00:31:52
(UTC-04:00)
Language:

Envisat - Orbit

View from above orbital plane
View from above orbital plane
View from above satellite
View from above satellite

Ground track
Ground track

The orbit data is extracted from the following two-line orbital elements,

1 27386U 02009A   16207.74503552  .00000017  00000-0  19627-4 0  9991
2 27386  98.2806 259.7787 0001178  83.7316 276.4003 14.37871863754164
Epoch (UTC): 25 July 2016 17:52:51
Eccentricity: 0.0001178
inclination: 98.2806°
perigee height: 765 km
apogee height: 766 km
right ascension of ascending node: 259.7787°
argument of perigee: 83.7316°
revolutions per day: 14.37871863
mean anomaly at epoch: 276.4003°
orbit number at epoch: 75416

The dashed part of the orbit path shows where the satellite is in the earth's shadow,  

DLR